[[{"header":{"parameterUnit":"m.s-1","parameterCategory":1,"la1":30.2991,"la2":30.254,"lo1":-89.0895,"lo2":-89.0444,"dy":0.0017,"dx":0.0017,"nx":28,"ny":28,"refTime":"2024-05-04T03:00:00:Z","depth":0,"parameterNumber":2,"parameterNumberName":"U-component_of_WINDS"},"data":[0,0,0,0,0,0,0,0,0,0,0,0,0,0,0,0,0,0,0,0,0,0,0,0,0,0,0,0,0,0,0,0,0,0,0,0,0,0,0,0,0,0,0,0,0,0,0,0,0,0,0,0,0,0,0,0,0,0,-4.2025,-4.2026,0,-4.2141,-4.2142,-4.2143,-4.211,-4.2108,-4.2106,-4.2103,-4.2215,-4.222,-4.2226,0,0,0,0,0,0,0,0,0,0,0,0,0,-4.1768,-4.1773,-4.2024,-4.2026,-4.2027,-4.214,-4.2142,-4.2144,-4.2111,-4.2108,-4.2105,-4.2102,-4.2214,-4.222,-4.2226,0,0,0,0,0,0,0,0,0,0,0,0,0,-4.1881,-4.1775,-4.2024,-4.2025,-4.2026,-4.214,-4.2142,-4.2144,-4.2111,-4.2108,-4.2104,-4.2101,-4.2212,-4.2219,-4.2227,-4.2345,0,0,-4.2251,-4.2254,0,0,0,0,0,0,0,0,-4.1875,-4.1891,-4.2023,-4.2025,-4.2027,-4.2108,-4.2093,-4.2211,-4.2112,-4.2079,-4.2103,-4.2099,-4.2182,-4.2192,-4.2221,-4.2351,-4.2355,-4.2251,-4.2256,-4.2259,-4.2261,0,0,0,0,0,0,0,-4.1867,-4.1886,-4.207,-4.2025,-4.2027,-4.2017,-4.2029,-4.2115,-4.2148,-4.2081,-4.2079,-4.2094,-4.2182,-4.2214,-4.2224,-4.2357,-4.2251,-4.2258,-4.2263,-4.2266,-4.2589,-4.2593,0,0,0,0,0,0,-4.1859,-4.1879,-4.2066,-4.2074,-4.1941,-4.2025,-4.2038,-4.2085,-4.2147,-4.2154,-4.2097,-4.2092,-4.2202,-4.2215,-4.2227,-4.237,-4.2259,-4.2266,-4.2271,-4.2585,-4.259,-4.2594,0,0,0,0,0,0,-4.1854,-4.1876,-4.2062,-4.1976,-4.1999,-4.2033,-4.2085,-4.2089,-4.2121,-4.2159,-4.2164,-4.2123,-4.22,-4.2216,-4.2317,-4.2373,-4.227,-4.2277,-4.2581,-4.2587,-4.2592,-4.2656,0,0,0,0,0,0,-4.1847,-4.1874,-4.1921,-4.1977,-4.2004,-4.2151,-4.2089,-4.2094,-4.2135,-4.213,-4.2186,-4.2191,-4.2198,-4.2305,-4.2324,-4.2382,-4.2283,-4.2576,-4.2583,-4.259,-4.2649,-4.2664,-4.2676,0,0,0,0,0,-4.1837,-4.1933,-4.1924,-4.1946,-4.2063,-4.2155,-4.2169,-4.2178,-4.214,-4.2186,-4.2211,-4.219,-4.2365,-4.2316,-4.2337,-4.2398,-4.2572,-4.2581,-4.259,-4.2643,-4.2661,-4.2676,0,0,0,0,0,0,-4.1879,-4.194,-4.193,-4.2047,-4.2097,-4.2149,-4.2207,-4.2196,-4.2255,-4.2247,-4.2253,-4.2265,-4.2368,-4.2393,-4.2338,-4.2516,-4.2462,-4.2476,-4.2496,-4.2513,-4.2526,-4.2517,-4.229,0,0,0,0,0,-4.1903,-4.1974,-4.2022,-4.2121,-4.2146,-4.2173,-4.2213,-4.2216,-4.2265,-4.2285,-4.2317,-4.2364,-4.243,-4.2473,-4.2535,-4.2653,-4.2664,-4.2705,-4.2719,-4.273,-4.2741,-4.2804,-4.2823,-4.2623,-4.2623,-4.2623,0,0,-4.195,-4.1993,-4.2037,-4.213,-4.2168,-4.224,-4.219,-4.2268,-4.2321,-4.2296,-4.2393,-4.2419,-4.2472,-4.2582,-4.2631,-4.2605,-4.2799,-4.2741,-4.2749,-4.2754,-4.2815,-4.2834,-4.2851,-4.2629,-4.2628,-4.2627,0,0,-4.2074,-4.2114,-4.22,-4.2241,-4.23,-4.2318,-4.2338,-4.2394,-4.241,-4.2509,-4.2491,-4.2553,-4.2666,-4.2705,-4.274,-4.288,-4.2862,-4.29,-4.2969,-4.3031,-4.3047,-4.3061,-4.311,-4.3128,-4.2912,-4.2912,-4.2912,0,-4.2125,-4.2235,-4.2245,-4.2326,-4.2367,-4.2351,-4.2438,-4.2475,-4.2551,-4.2579,-4.255,-4.2692,-4.2727,-4.2845,-4.288,-4.2909,-4.2931,-4.2893,-4.3045,-4.3059,-4.3072,-4.3118,-4.3137,-4.2916,-4.2915,-4.2915,-4.2915,0,-4.2295,-4.2371,-4.2433,-4.251,-4.2559,-4.2641,-4.2663,-4.271,-4.2709,-4.2729,-4.2829,-4.2871,-4.2941,-4.297,-4.2968,-4.3088,-4.307,-4.3043,-4.2989,-4.3095,-4.3139,-4.3157,-4.2922,-4.292,-4.2919,-4.2918,0,0,-4.2446,-4.253,-4.2552,-4.2587,-4.2652,-4.271,-4.2792,-4.2864,-4.2904,-4.2958,-4.3025,-4.3122,-4.3098,-4.3137,-4.314,-4.3195,-4.3303,-4.3161,-4.3162,-4.3185,-4.3436,-4.3455,-4.3476,-4.3292,-4.3296,-4.3298,-4.3431,0,-4.2574,-4.2721,-4.2734,-4.2865,-4.2935,-4.2922,-4.2993,-4.304,-4.3061,-4.3122,-4.3144,-4.3213,-4.3176,-4.32,-4.3253,-4.3278,-4.3353,-4.3269,-4.3353,-4.3356,-4.3339,-4.3499,-4.352,-4.3643,-4.3449,-4.3452,-4.3454,0,-4.2744,-4.2805,-4.2944,-4.3001,-4.3031,-4.3095,-4.3162,-4.3221,-4.3274,-4.3285,-4.333,-4.3326,-4.3408,-4.3353,-4.3466,-4.3408,-4.3444,-4.3461,-4.3466,-4.3473,-4.341,-4.3509,-4.3683,-4.3701,-4.3481,-4.3479,-4.3477,0,-4.2839,-4.2956,-4.3055,-4.3085,-4.3154,-4.3199,-4.3229,-4.3279,-4.3321,-4.3379,-4.3407,-4.3473,-4.3509,-4.3559,-4.3572,-4.3531,-4.3684,-4.363,-4.3694,-4.3694,-4.3726,-4.3723,-4.3906,-4.3751,-4.3751,-4.375,-4.375,0,-4.2981,-4.3066,-4.3099,-4.3159,-4.3254,-4.3267,-4.336,-4.3387,-4.3431,-4.3495,-4.3487,-4.3547,-4.3561,-4.3623,-4.3634,-4.3725,-4.3741,-4.3751,-4.3753,-4.3752,-4.375,-4.3773,-4.3765,-4.3755,-4.3754,-4.3753,-4.3752,0,-4.3102,-4.3128,-4.3234,-4.3292,-4.3308,-4.3376,-4.3423,-4.3481,-4.3502,-4.3583,-4.3602,-4.3634,-4.3707,-4.3726,-4.3812,-4.3819,-4.3926,-4.392,-4.3909,-4.3909,-4.3971,-4.3965,-4.4175,-4.4202,-4.403,-4.4032,-4.4033,0,-4.319,-4.3256,-4.3322,-4.3365,-4.3398,-4.3469,-4.3513,-4.3528,-4.3574,-4.364,-4.3689,-4.3761,-4.382,-4.3936,-4.3966,-4.4031,-4.4026,-4.4095,-4.4035,-4.4032,-4.4026,-4.4021,-4.4027,-4.4106,-4.4108,-4.4109,-4.411,0,-4.3344,-4.3354,-4.3419,-4.349,-4.3544,-4.3599,-4.3652,-4.3688,-4.3711,-4.3762,-4.3838,-4.3884,-4.3974,-4.4045,-4.4112,-4.414,-4.4129,-4.4129,-4.4147,-4.4146,-4.4137,-4.4142,-4.3939,-4.4124,-4.4122,-4.4121,-4.4121,-4.412,-4.345,-4.3508,-4.3564,-4.3637,-4.368,-4.373,-4.3787,-4.3816,-4.3881,-4.3956,-4.3961,-4.4043,-4.4094,-4.4183,-4.4216,-4.4278,-4.4257,-4.4284,-4.429,-4.4296,-4.4301,-4.4128,-4.429,-4.429,-4.429,-4.4289,-4.4289,0,-4.3602,-4.3638,-4.3706,-4.3782,-4.384,-4.3828,-4.3886,-4.3934,-4.4007,-4.4057,-4.4116,-4.4202,-4.4272,-4.4308,-4.4376,-4.442,-4.4416,-4.4437,-4.4433,-4.444,-4.4317,-4.4294,-4.4439,-4.4439,-4.4439,-4.4439,-4.4439,-4.4439,-4.3688,-4.3786,-4.3803,-4.3921,-4.3955,-4.4038,-4.4072,-4.4118,-4.4158,-4.4256,-4.4315,-4.4339,-4.4383,-4.4455,-4.4517,-4.4526,-4.4551,-4.4574,-4.458,-4.4464,-4.4449,-4.4434,-4.4412,-4.458,-4.458,-4.4698,-4.4699,-4.47]},{"header":{"parameterUnit":"m.s-1","parameterCategory":1,"la1":30.2991,"la2":30.254,"lo1":-89.0895,"lo2":-89.0444,"dy":0.0017,"dx":0.0017,"nx":28,"ny":28,"refTime":"2024-05-04T03:00:00:Z","depth":0,"parameterNumber":3,"parameterNumberName":"V-component_of_WINDS"},"data":[0,0,0,0,0,0,0,0,0,0,0,0,0,0,0,0,0,0,0,0,0,0,0,0,0,0,0,0,0,0,0,0,0,0,0,0,0,0,0,0,0,0,0,0,0,0,0,0,0,0,0,0,0,0,0,0,0,0,3.9188,3.9189,0,3.9311,3.9312,3.9314,3.9296,3.9294,3.9292,3.929,3.9413,3.9418,3.9423,0,0,0,0,0,0,0,0,0,0,0,0,0,3.8936,3.8941,3.9188,3.9189,3.9191,3.9311,3.9313,3.9314,3.9297,3.9294,3.9292,3.9289,3.9411,3.9417,3.9424,0,0,0,0,0,0,0,0,0,0,0,0,0,3.9051,3.8942,3.9188,3.9197,3.9199,3.9311,3.9313,3.9315,3.9297,3.9294,3.9291,3.9288,3.9409,3.9417,3.9424,3.9534,0,0,3.9448,3.9452,0,0,0,0,0,0,0,0,3.9044,3.906,3.9194,3.9196,3.9199,3.9285,3.9269,3.9388,3.9298,3.926,3.929,3.9287,3.9373,3.9383,3.9413,3.954,3.9545,3.9449,3.9454,3.9457,3.9459,0,0,0,0,0,0,0,3.9036,3.9055,3.9236,3.9196,3.9199,3.9194,3.9207,3.9291,3.9332,3.9263,3.9262,3.9277,3.9373,3.9406,3.9416,3.9547,3.9449,3.9456,3.946,3.9463,3.9772,3.9776,0,0,0,0,0,0,3.9026,3.9048,3.9233,3.924,3.9112,3.9201,3.9216,3.9261,3.9331,3.9339,3.9279,3.9276,3.9394,3.9407,3.942,3.9555,3.9457,3.9464,3.9469,3.9769,3.9773,3.9777,0,0,0,0,0,0,3.9021,3.9043,3.9228,3.9144,3.9167,3.9209,3.9259,3.9265,3.9297,3.9343,3.935,3.9305,3.9392,3.9409,3.9507,3.9559,3.9468,3.9475,3.9764,3.977,3.9775,3.9825,0,0,0,0,0,0,3.9014,3.9041,3.9083,3.9145,3.9172,3.9313,3.9263,3.9269,3.9311,3.9307,3.9369,3.9377,3.9391,3.9495,3.9514,3.9568,3.9481,3.976,3.9767,3.9773,3.9819,3.9831,3.9842,0,0,0,0,0,3.9005,3.9091,3.9086,3.9108,3.9226,3.9316,3.9331,3.9347,3.9315,3.9358,3.9388,3.9375,3.955,3.9505,3.9527,3.9584,3.9757,3.9765,3.9773,3.9813,3.9829,3.9841,0,0,0,0,0,0,3.9032,3.9099,3.9094,3.9203,3.9254,3.9313,3.9367,3.9362,3.9422,3.9416,3.9432,3.9446,3.9545,3.9574,3.9523,3.9695,3.9649,3.9662,3.9672,3.9687,3.9699,3.969,3.9487,0,0,0,0,0,3.9052,3.912,3.9174,3.9265,3.9291,3.9325,3.9365,3.9373,3.9426,3.9447,3.9484,3.9536,3.9603,3.9646,3.971,3.9822,3.9837,3.9872,3.9884,3.9893,3.9904,3.9968,3.9985,3.9803,3.9803,3.9803,0,0,3.9091,3.9136,3.9178,3.9272,3.9312,3.9383,3.9343,3.9419,3.9471,3.9458,3.9554,3.9583,3.9641,3.9747,3.9796,3.9774,3.9958,3.9903,3.991,3.9916,3.9978,3.9995,4.001,3.9808,3.9807,3.9807,0,0,3.92,3.924,3.9322,3.9364,3.9427,3.9449,3.9468,3.9529,3.9548,3.9645,3.9637,3.9699,3.9813,3.9856,3.9893,4.0021,4.0011,4.0041,4.0102,4.0164,4.0178,4.0191,4.0239,4.0255,4.0051,4.0052,4.0052,0,3.9241,3.9348,3.9364,3.9442,3.9484,3.9477,3.956,3.9599,3.9679,3.9709,3.9683,3.9829,3.9867,3.9985,4.0016,4.0046,4.0069,4.0034,4.0175,4.0188,4.02,4.0246,4.0264,4.0055,4.0055,4.0054,4.0054,0,3.9396,3.947,3.9528,3.9608,3.9657,3.9737,3.9765,3.9812,3.9816,3.9841,3.994,3.9987,4.0061,4.0089,4.0093,4.0208,4.0193,4.0171,4.0126,4.0221,4.0264,4.0281,4.006,4.0059,4.0058,4.0057,0,0,3.9525,3.9615,3.9636,3.9673,3.9743,3.98,3.988,3.9955,3.9996,4.0051,4.012,4.0218,4.0199,4.0241,4.0249,4.0304,4.0405,4.0276,4.0277,4.03,4.0537,4.0555,4.0575,4.0399,4.0402,4.0405,4.0533,0,3.9642,3.9785,3.9803,3.993,4.0,3.9995,4.0065,4.0115,4.0141,4.0204,4.0231,4.0302,4.0271,4.0296,4.035,4.0381,4.0453,4.0372,4.0463,4.0466,4.0451,4.0597,4.0615,4.0734,4.055,4.0553,4.0555,0,3.9798,3.986,3.9995,4.0058,4.0087,4.015,4.0221,4.0281,4.0338,4.0353,4.0402,4.0404,4.0487,4.0438,4.0553,4.0498,4.0536,4.0558,4.0562,4.0573,4.0517,4.0613,4.0772,4.079,4.0581,4.0579,4.0577,0,3.9881,3.9999,4.0095,4.0127,4.0202,4.0246,4.0279,4.0334,4.0378,4.044,4.0469,4.0539,4.0578,4.0632,4.0653,4.0615,4.0769,4.072,4.0784,4.0784,4.0818,4.0816,4.0987,4.0839,4.0839,4.0839,4.0838,0,4.0011,4.0094,4.0134,4.0194,4.0287,4.0307,4.0398,4.0429,4.0478,4.0544,4.0543,4.0604,4.0628,4.0693,4.071,4.0805,4.0821,4.0836,4.084,4.0838,4.0836,4.0864,4.0857,4.0843,4.0842,4.0841,4.0841,0,4.0121,4.0151,4.0256,4.0319,4.0337,4.0403,4.0457,4.0515,4.054,4.0623,4.0644,4.0684,4.0761,4.0788,4.088,4.0892,4.1003,4.0998,4.0984,4.0985,4.1049,4.1043,4.1246,4.1274,4.1106,4.1107,4.1108,0,4.0203,4.0267,4.0338,4.0382,4.0418,4.0489,4.0535,4.0557,4.0605,4.0677,4.0726,4.0803,4.0866,4.099,4.1027,4.1099,4.1098,4.1164,4.1108,4.1105,4.1102,4.1098,4.1106,4.1174,4.1176,4.1177,4.1179,0,4.0346,4.0358,4.0425,4.0499,4.0554,4.0613,4.0669,4.0705,4.0735,4.079,4.087,4.0919,4.1015,4.1092,4.1166,4.12,4.1195,4.1196,4.1215,4.1214,4.1204,4.1213,4.1015,4.1191,4.119,4.1189,4.1188,4.1188,4.0446,4.0504,4.0564,4.0639,4.0684,4.0737,4.0796,4.083,4.0897,4.0979,4.0987,4.1073,4.1131,4.123,4.1267,4.1335,4.1317,4.1344,4.1351,4.1358,4.1364,4.1192,4.1348,4.1348,4.1348,4.1347,4.1347,0,4.0591,4.063,4.0699,4.0779,4.0839,4.083,4.0893,4.0943,4.102,4.1074,4.1137,4.123,4.1306,4.135,4.1425,4.1472,4.1472,4.1491,4.1489,4.1497,4.1375,4.1352,4.149,4.149,4.149,4.149,4.149,4.149,4.0674,4.0772,4.0792,4.0913,4.0951,4.1037,4.1074,4.1124,4.1168,4.1272,4.1335,4.1364,4.1415,4.1494,4.1564,4.1574,4.1603,4.1625,4.1634,4.152,4.1505,4.1491,4.147,4.163,4.1631,4.1751,4.1752,4.1753]}]]